Location: Alpha Ridge Park
(39.3209°N, 76.9128°W)
Time: 18:37:50
(UTC-04:00)

Transit 2A - Pass Details

Date: 26 May 2019
Orbit: 593 x 966 km, 66.7° (Epoch: 15 June)

Event Time Altitude Azimuth Distance (km) Brightness Sun altitude
Rises 16:56:34 0° 329° (NNW) 3,527 9.7 37.7°
Reaches altitude 10° 16:59:11 10° 329° (NNW) 2,534 9.1 37.2°
Maximum altitude 17:05:03 79° 244° (WSW) 831 7.1 36.1°
Drops below altitude 10° 17:10:15 10° 158° (SSE) 2,266 8.3 35.1°
Sets 17:12:30 0° 157° (SSE) 3,129 9.0 34.6°
